Location: Archemont
(49.1579°N, 1.7598°E)
Time: 11:00:10
(UTC+00:00)

deb Explorer IX - Pass Details

Date: 14 April 2024
Orbit: 513 x 891 km, 38.7° (Epoch: 23 May)

Event Time Altitude Azimuth Distance (km) Brightness Sun altitude
Rises 18:02:41 0° 263° (W) 3,415 ? 5.8°
Reaches altitude 10° 18:06:20 10° 242° (WSW) 2,408 ? 5.2°
Maximum altitude 18:09:32 15° 208° (SSW) 1,981 ? 4.7°
Drops below altitude 10° 18:12:35 10° 173° (S) 2,257 ? 4.2°
Sets 18:15:50 0° 151° (SSE) 3,087 ? 3.7°
